K8CWG Weather Reports


Display with metric or nautical units.
time (UTC)temp
F
wind
direction
speed
MPH
gust
MPH
rain 1hr
in
rain 24hr
in
rain mn
in
humidity
%
barometer
mb
20260508203002 69 254 2.0 10.0 0.00 0.00 0.00 45 1009.0
20260508201502 68 249 2.0 7.0 0.00 0.00 0.00 46 1009.2
20260508200006 68 238 4.0 10.0 0.00 0.00 0.00 43 1009.2
20260508194502 69 226 4.0 11.0 0.00 0.00 0.00 44 1009.3
20260508191504 71 265 3.0 8.0 0.00 0.00 0.00 42 1009.6
20260508191502 71 265 4.0 8.0 0.00 0.00 0.00 42 1009.6
20260508190006 70 263 2.0 14.0 0.00 0.00 0.00 43 1009.9
20260508190004 70 263 4.0 14.0 0.00 0.00 0.00 43 1009.9
20260508184502 71 262 3.0 11.0 0.00 0.00 0.00 46 1010.2
20260508183002 69 258 3.0 8.0 0.00 0.00 0.00 45 1010.4
20260508181502 70 270 4.0 14.0 0.00 0.00 0.00 42 1010.7
20260508180005 68 133 4.0 13.0 0.00 0.00 0.00 42 1010.9
20260508174502 68 262 4.0 10.0 0.00 0.00 0.00 46 1011.2
20260508173001 68 321 4.0 11.0 0.00 0.00 0.00 45 1011.6
20260508171502 68 203 3.0 9.0 0.00 0.00 0.00 47 1011.7
20260508170007 68 248 3.0 11.0 0.00 0.00 0.00 48 1012.1
20260508170005 68 248 4.0 11.0 0.00 0.00 0.00 48 1012.0
20260508164502 67 314 5.0 10.0 0.00 0.00 0.00 49 1012.3
20260508163003 66 257 4.0 14.0 0.00 0.00 0.00 51 1012.5
20260508161502 65 258 5.0 13.0 0.00 0.00 0.00 50 1012.7
20260508160005 65 181 4.0 9.0 0.00 0.00 0.00 52 1012.9
20260508160003 65 181 3.0 9.0 0.00 0.00 0.00 52 1013.0
20260508154501 65 253 4.0 13.0 0.00 0.00 0.00 53 1013.0
20260508153001 64 252 4.0 11.0 0.00 0.00 0.00 51 1013.2
20260508150006 62 249 5.0 10.0 0.00 0.00 0.00 50 1013.5
20260508144502 62 100 3.0 6.0 0.00 0.00 0.00 53 1013.3
20260508143002 60 248 3.0 12.0 0.00 0.00 0.00 55 1013.7
20260508141502 59 259 2.0 7.0 0.00 0.00 0.00 56 1013.8
20260508140007 58 263 3.0 6.0 0.00 0.00 0.00 59 1013.9
20260508140003 58 263 2.0 6.0 0.00 0.00 0.00 59 1014.0
20260508133002 56 240 1.0 6.0 0.00 0.00 0.00 62 1014.0
20260508131502 54 251 1.0 4.0 0.00 0.00 0.00 64 1013.9
20260508130004 53 244 1.0 4.0 0.00 0.00 0.00 68 1013.7
20260508123003 48 198 1.0 2.0 0.00 0.00 0.00 74 1013.8
20260508121502 48 196 1.0 3.0 0.00 0.00 0.00 74 1013.8
20260508120004 47 222 1.0 3.0 0.00 0.00 0.00 75 1013.7
20260508120002 47 222 0.0 3.0 0.00 0.00 0.00 75 1014.0
20260508114501 46 155 0.0 1.0 0.00 0.00 0.00 76 1013.6
20260508113002 46 124 1.0 2.0 0.00 0.00 0.00 76 1013.4
20260508111502 45 200 1.0 3.0 0.00 0.00 0.00 76 1013.4
20260508110004 45 157 0.0 3.0 0.00 0.00 0.00 76 1013.3
20260508104501 45 141 1.0 3.0 0.00 0.00 0.00 76 1013.2
20260508101502 44 159 0.0 2.0 0.00 0.00 0.00 79 1013.1
20260508100005 43 297 0.0 1.0 0.00 0.00 0.00 83 1013.1
20260508094502 43 297 0.0 1.0 0.00 0.00 0.00 84 1013.0
20260508093001 42 297 0.0 0.0 0.00 0.00 0.00 84 1013.0
20260508091502 41 297 0.0 0.0 0.00 0.00 0.00 84 1013.1
20260508090004 41 297 0.0 1.0 0.00 0.00 0.00 84 1013.0
20260508090002 41 297 0.0 1.0 0.00 0.00 0.00 84 1013.3
20260508084501 42 297 0.0 1.0 0.00 0.00 0.00 83 1013.0
20260508083003 42 297 0.0 1.0 0.00 0.00 0.00 82 1012.8
20260508081502 42 297 0.0 1.0 0.00 0.00 0.00 82 1012.9
20260508080004 43 297 0.0 1.0 0.00 0.00 0.00 81 1013.0
20260508080002 43 297 0.0 1.0 0.00 0.00 0.00 81 1013.2
20260508074501 43 297 0.0 0.0 0.00 0.00 0.00 80 1012.8
20260508073001 43 120 0.0 1.0 0.00 0.00 0.00 81 1012.8
20260508071502 43 120 0.0 1.0 0.00 0.00 0.00 79 1012.8
20260508070005 43 110 0.0 1.0 0.00 0.00 0.00 82 1013.2
20260508064501 43 109 0.0 0.0 0.00 0.00 0.00 82 1013.4
20260508061501 43 141 0.0 0.0 0.00 0.00 0.00 80 1013.5
20260508060003 43 141 0.0 0.0 0.00 0.00 0.00 80 1013.7
20260508054502 43 141 0.0 0.0 0.00 0.00 0.00 81 1013.7
20260508053001 43 141 0.0 0.0 0.00 0.00 0.00 82 1013.5
20260508051501 44 141 0.0 0.0 0.00 0.00 0.00 81 1013.4
20260508050007 44 141 0.0 0.0 0.00 0.00 0.00 81 1013.7
20260508044502 44 141 0.0 0.0 0.00 0.00 0.00 78 1013.5
20260508041504 44 141 0.0 0.0 0.00 0.00 0.00 79 1013.4
20260508041502 44 141 0.0 0.0 0.00 0.00 0.00 79 1013.2
20260508040015 44 141 0.0 0.0 0.00 0.00 0.00 80 1013.4
20260508040006 44 141 0.0 0.0 0.00 0.00 0.00 80 1013.2
20260508034502 45 141 0.0 0.0 0.00 0.00 0.00 79 1013.5
20260508033002 45 141 0.0 1.0 0.00 0.00 0.00 77 1013.6
20260508031502 46 141 0.0 0.0 0.00 0.00 0.00 76 1013.4
20260508030004 46 141 0.0 0.0 0.00 0.00 0.00 77 1013.7
20260508024503 46 141 0.0 1.0 0.00 0.00 0.00 74 1013.3
20260508024501 46 141 0.0 1.0 0.00 0.00 0.00 74 1013.5
20260508023002 47 208 0.0 0.0 0.00 0.00 0.00 74 1013.4
20260508021501 47 208 0.0 1.0 0.00 0.00 0.00 72 1013.4
20260508020005 48 219 0.0 0.0 0.00 0.00 0.00 69 1013.3
20260508020003 48 219 0.0 0.0 0.00 0.00 0.00 69 1013.5
20260508014502 49 219 0.0 0.0 0.00 0.00 0.00 66 1013.5
20260508013002 49 243 0.0 0.0 0.00 0.00 0.00 63 1013.3
20260508013000 49 243 0.0 0.0 0.00 0.00 0.00 63 1013.5
20260508011503 51 243 0.0 0.0 0.00 0.00 0.00 60 1013.0
20260508010005 52 243 0.0 0.0 0.00 0.00 0.00 56 1013.0
20260508010003 52 243 0.0 0.0 0.00 0.00 0.00 56 1013.2
20260508004502 53 243 0.0 1.0 0.00 0.00 0.00 52 1013.0
20260508004500 53 243 0.0 1.0 0.00 0.00 0.00 52 1013.2
20260508003000 55 243 0.0 1.0 0.00 0.00 0.00 49 1013.1
20260508001502 57 243 0.0 2.0 0.00 0.00 0.00 48 1012.8
20260508001500 57 243 0.0 2.0 0.00 0.00 0.00 48 1013.0
20260508000002 59 266 0.0 1.0 0.00 0.00 0.00 44 1012.7
20260507234500 62 287 0.0 3.0 0.00 0.00 0.00 39 1012.6
20260507233002 62 83 0.0 2.0 0.00 0.00 0.00 42 1012.4
20260507231503 61 198 1.0 4.0 0.00 0.00 0.00 38 1012.4
20260507231501 61 198 1.0 4.0 0.00 0.00 0.00 38 1012.6
20260507230009 61 313 0.0 4.0 0.00 0.00 0.00 40 1012.6
20260507230005 61 313 1.0 4.0 0.00 0.00 0.00 40 1012.5
20260507224503 62 265 1.0 5.0 0.00 0.00 0.00 38 1012.5
20260507224501 62 265 2.0 5.0 0.00 0.00 0.00 38 1012.7
20260507223002 61 252 1.0 4.0 0.00 0.00 0.00 39 1012.7
20260507221503 63 353 1.0 4.0 0.00 0.00 0.00 39 1012.6
20260507221501 63 353 1.0 4.0 0.00 0.00 0.00 39 1012.7
20260507220003 62 265 2.0 5.0 0.00 0.00 0.00 37 1013.0
20260507214502 63 260 2.0 5.0 0.00 0.00 0.00 38 1012.7
20260507213002 62 68 0.0 7.0 0.00 0.00 0.00 41 1012.9
20260507211502 62 229 2.0 6.0 0.00 0.00 0.00 40 1012.8
20260507210005 63 252 2.0 9.0 0.00 0.00 0.00 40 1012.6